Regional Weather Roundup
Issued by NWS

Home | Current Version | Previous Version | Graphics & Text | Print | Product List | Glossary On
Versions: 1 2 3 4 5 6 7 8 9 10 11 12 13 14 15 16 17 18 19 20 21 22 23 24 25 26 27
000
ASUS45 KBOU 180310
RWRCO

WEATHER ROUNDUP FOR COLORADO
NATIONAL WEATHER SERVICE DENVER/BOULDER CO
800 PM MST SUN DEC 17 2017

NOTE: "FAIR" INDICATES FEW OR NO CLOUDS BELOW 12000 FEET WITH NO
SIGNIFICANT WEATHER AND/OR OBSTRUCTIONS TO VISIBILITY.

COZ001>005-013-030-031-180400-
...NORTHWEST COLORADO...

CITY           SKY/WX    TMP DP  RH WIND       PRES   REMARKS
CRAIG          FAIR      13   9  84 CALM      30.13R
HAYDEN         FAIR      21  17  84 N3        30.14R
MEEKER         FAIR      21  15  78 CALM      30.12R
RABBIT EARS PA CLOUDY   N/A N/A N/A W13G20    30.06R FOG
STEAMBOAT SPGS FAIR      22  19  86 CALM      30.11S
WALDEN         FAIR      12   9  85 S8        30.08R WCI   1
$$

COZ006>008-011-180400-
...WEST CENTRAL VALLEYS...

CITY           SKY/WX    TMP DP  RH WIND       PRES   REMARKS
GRAND JUNCTION FAIR      31  10  41 N9        30.12R WCI  23
MONTROSE       FAIR      23   6  48 SE9       30.14R WCI  13
EAGLE          FAIR      22  11  62 E6        30.12R WCI  14
RIFLE          FAIR      25   9  50 E5        30.13R WCI  19
DELTA          FAIR      28   3  34 NE7       30.13R WCI  21
NUCLA          FAIR      28   0  29 E12       30.13R WCI  18
$$

COZ017>023-064>068-180400-
...SOUTHWEST COLORADO...

CITY           SKY/WX    TMP DP  RH WIND       PRES   REMARKS
DURANGO        FAIR      27   5  39 N12       30.07R WCI  17
CORTEZ         FAIR      22   3  44 E9        30.10R WCI  12
PAGOSA SPRINGS FAIR      26   1  33 CALM      30.10R
TELLURIDE      FAIR      26   1  33 E3        30.13R
WOLF CREEK PAS FAIR      16   1  53 SW14G20   30.16R WCI   1
$$

COZ009-010-012-014-032>034-037-058>063-180400-
...CENTRAL COLORADO...

CITY           SKY/WX    TMP DP  RH WIND       PRES   REMARKS
ASPEN          FAIR      21   8  57 S7        30.08R WCI  12
BUENA VISTA    FAIR      33   3  29 NW18G24   30.01R WCI  21
COPPER MTN     NOT AVBL
BERTHOUD PASS  FAIR       9  -4  56 NW24G32   30.02R WCI -12
COTTONWOOD PAS FAIR      34   3  27 NW12G26   30.02R WCI  25
GUNNISON       FAIR      15   1  53 SE6       30.09R WCI   6
KREMMLING      FAIR      19  14  79 CALM      30.13R
LEADVILLE      FAIR      14   0  53 NE6       30.05R WCI   5
MONARCH PASS   FAIR      18   1  49 W36G46    30.14R WCI  -3
SALIDA         FAIR      38   2  22 W13G20    30.07R
SUNLIGHT       FAIR      14   7  73 SW8       30.13R WCI   3
WILKERSON PASS FAIR      23   1  39 W10G22    30.03R WCI  12
$$

COZ069>075-180400-
...SAN LUIS VALLEY/SANGRE DE CRISTO MOUNTAINS...

CITY           SKY/WX    TMP DP  RH WIND       PRES   REMARKS
ALAMOSA        FAIR      19  12  74 NW7       30.04R WCI  10
DEL NORTE      FAIR      22   6  52 W12       30.05R WCI  10
LA VETA PASS   FAIR      28   5  37 S23G45      N/A  WCI  14
SAGUACHE       FAIR      30   5  34 N10       30.05R WCI  21
$$

COZ035-036-038>040-180400-
...NORTHERN COLORADO FRONT RANGE...

CITY           SKY/WX    TMP DP  RH WIND       PRES   REMARKS
DENVER INTL AP FAIR      25  18  74 S9        29.93R WCI  15
DMNS CITY PARK NOT AVBL
AURORA         PTCLDY    26  20  79 S8        29.93R WCI  17
FRONT RANGE AP PTCLDY    25  19  80 SE7       29.94R WCI  17
ERIE MUNI ARPT FAIR      24  20  87 CALM      30.01R
BOULDER MUN AP FAIR      32  27  80 W5        29.95R WCI  27
CENTENNIAL     FAIR      26  20  77 S5        29.93R WCI  20
BROOMFIELD     PTCLDY    30  27  86 NW9       29.94R WCI  22
FORT COLLINS   FAIR      26  24  92 N3        29.96R
LONGMONT       FAIR      24  19  83 W6        29.97S WCI  17
$$

COZ041-046-047-076>085-087-088-180400-
...PIKES PEAK/PALMER DIVIDE AND SOUTHERN FOOTHILLS...

CITY           SKY/WX    TMP DP  RH WIND       PRES   REMARKS
COLO. SPRINGS  FAIR      20  16  84 NE7       29.97S WCI  11
A. F. ACADEMY  FAIR      16  13  86 N8        29.96R WCI   6
SCHRIEVER AFB  FAIR      22  20  92 CALM      29.97R
CHEYENNE MTN   FAIR      28  20  73 CALM      29.89S
ELLICOTT         N/A    N/A N/A N/A CALM      29.96R
FALCON         FAIR      23  21  93 W12       29.96R WCI  11
FORT CARSON    FAIR      19  16  87 CALM      29.95S
LIMON          FAIR      17  15  92 N3        29.97R
MONUMENT HILL  FAIR      23  18  80 SW9       29.96R WCI  13
CANON CITY     FAIR      27  21  80 CALM      29.97S
WALSENBURG     FAIR      25  21  86 W3        29.96S
TRINIDAD       FAIR      30  19  63 SW9       29.95R WCI  22
$$

COZ042>045-048>051-090-091-180400-
...NORTHEAST COLORADO...

CITY           SKY/WX    TMP DP  RH WIND       PRES   REMARKS
GREELEY ARPT   FAIR      20  17  88 N7        29.97R WCI  11
AKRON          FAIR      28  21  75 SW9       29.95R WCI  19
BURLINGTON     FAIR      18  15  88 SW8       29.99R WCI   8
WRAY           FAIR      27  23  86 W5        29.98S WCI  21
YUMA           FAIR      21  19  93 SW8       29.97R WCI  12
STERLING       FAIR      23  21  93 SW5       29.95S WCI  17
HOLYOKE        FAIR      28  21  74 SW8       29.97R WCI  20
FORT MORGAN    FAIR      26  21  83 CALM      29.96R
$$

COZ086-089-092>099-180400-
...SOUTHEAST COLORADO...

CITY           SKY/WX    TMP DP  RH WIND       PRES   REMARKS
PUEBLO         FAIR      23  19  85 N6        29.99R WCI  16
LA JUNTA       FAIR      30  23  75 NE3       29.99R
LAMAR          FAIR      21  17  84 S6        29.99R WCI  13
SPRINGFIELD      N/A     24  21  88 S9        29.98F WCI  14
$$




USA.gov is the U.S. government's official web portal to all federal, state and local government web resources and services.